This is the latest recevied weather packets stored in our database for station/object K5OLV. If no packets are shown the sender has not sent any weather packets the latest 10 day(s).
| Time | Temp. | Humidity | Pressure | Rain* | Wind** | Luminosity | Snow |
|---|---|---|---|---|---|---|---|
| 1787785858 | 22.22° C | 87% | 1013.6 hPa | 0 mm | - | 5 W/m² | - |
| 1787785554 | 22.22° C | 87% | 1013.6 hPa | 0 mm | - | 6 W/m² | - |
| 1787785248 | 22.22° C | 87% | 1014 hPa | 0 mm | - | 7 W/m² | - |
| 1787784942 | 22.78° C | 86% | 1014.3 hPa | 0 mm | - | 9 W/m² | - |
| 1787784642 | 22.78° C | 86% | 1014.3 hPa | 0 mm | - | 11 W/m² | - |
| 1787784340 | 22.78° C | 86% | 1014.5 hPa | 0 mm | - | 12 W/m² | - |
| 1787784036 | 22.78° C | 85% | 1014.5 hPa | 0 mm | - | 14 W/m² | - |
| 1787783732 | 23.33° C | 86% | 1014.4 hPa | 0 mm | - | 15 W/m² | - |
| 1787783426 | 23.33° C | 85% | 1014.7 hPa | 0 mm | - | 17 W/m² | - |
| 1787783122 | 23.89° C | 84% | 1014.6 hPa | 0 mm | - | 18 W/m² | - |
| 1787782822 | 23.89° C | 83% | 1014.4 hPa | 0 mm | - | 23 W/m² | - |
| 1787782517 | 23.89° C | 83% | 1014.6 hPa | 0 mm | - | 24 W/m² | - |
| 1787782217 | 23.89° C | 83% | 1014.5 hPa | 0 mm | - | 27 W/m² | - |
| 1787781913 | 24.44° C | 83% | 1014.7 hPa | 0 mm | - | 31 W/m² | - |
| 1787781612 | 24.44° C | 82% | 1014.5 hPa | 0 mm | - | 34 W/m² | - |
| 1787781305 | 25° C | 82% | 1014.6 hPa | 0 mm | - | 33 W/m² | - |
| 1787781003 | 25.56° C | 82% | 1014.4 hPa | 0 mm | - | 24 W/m² | - |
| 1787780698 | 25.56° C | 79% | 1014.7 hPa | 0 mm | - | 12 W/m² | - |
| 1787780391 | 26.11° C | 80% | 1014.5 hPa | 0 mm | - | 26 W/m² | - |
| 1787780088 | 26.67° C | 79% | 1014.6 hPa | 0 mm | - | 42 W/m² | - |
| 1787779783 | 26.67° C | 77% | 1014.5 hPa | 0 mm | - | 63 W/m² | - |
| 1787779486 | 27.22° C | 79% | 1014.5 hPa | 0 mm | - | 80 W/m² | - |
| 1787779182 | 27.22° C | 79% | 1014.6 hPa | 0 mm | - | 89 W/m² | - |
| 1787778877 | 26.67° C | 81% | 1014.2 hPa | 0 mm | - | 98 W/m² | - |
| 1787778573 | 26.67° C | 81% | 1014.4 hPa | 0 mm | - | 108 W/m² | - |
* Rain latest hour (hover to see other rain measurements)
** Current wind speed in m/s (hover to see current wind gust speed)